Location: Toronto
(43.6667°N, 79.4167°W)
Time: 09:41:40
(UTC-05:00)

BlueWalker 3 - Visible Passes

Search period start: 01 December 2022 00:00
Search period end: 11 December 2022 00:00
Orbit: 500 x 519 km, 53.2° (Epoch: 01 December)

Date Brightness Start Highest point End Pass type
(mag) Time Alt. Az. Time Alt. Az. Time Alt. Az.
01 Dec 3.7 17:38:17 10° WNW 17:41:25 22° N 17:44:06 12° NE visible
01 Dec 4.5 19:17:57 10° NW 19:18:55 15° NNW 19:18:55 15° NNW visible
02 Dec 3.7 17:19:58 10° WNW 17:23:04 22° N 17:26:10 10° NE visible
02 Dec 4.1 18:59:35 10° NW 19:01:16 18° NNW 19:01:16 18° NNW visible
03 Dec 3.7 18:41:13 10° NW 18:43:38 22° N 18:43:38 22° N visible
04 Dec 3.4 18:22:49 10° NW 18:26:02 23° NNE 18:26:03 23° NNE visible
05 Dec 3.3 18:04:25 10° NW 18:07:39 24° NNE 18:08:29 22° NE visible
05 Dec 4.9 19:42:56 10° NW 19:43:19 12° NW 19:43:19 12° NW visible
06 Dec 3.3 17:46:02 10° NW 17:49:18 24° NNE 17:51:01 18° NE visible
06 Dec 4.3 19:24:32 10° NW 19:25:51 20° NW 19:25:51 20° NW visible
07 Dec 3.2 17:27:37 10° NW 17:30:55 25° NNE 17:33:38 13° ENE visible
07 Dec 3.3 19:06:06 10° NW 19:08:28 35° NW 19:08:28 35° NW visible
08 Dec 3.2 17:09:11 10° NW 17:12:32 26° NNE 17:15:49 10° ENE visible
08 Dec 2.0 18:47:41 10° NW 18:51:15 72° NW 18:51:15 72° NW visible
09 Dec 1.8 18:29:16 10° NW 18:33:11 88° SW 18:34:12 48° SE visible
10 Dec 1.9 18:10:51 10° NW 18:14:45 83° SW 18:17:26 19° SE visible
10 Dec 5.1 19:51:12 10° WSW 19:52:20 12° WSW 19:52:20 12° WSW visible
